Time,TemperatureF,DewpointF,PressureIn,WindDirection,WindDirectionDegrees,WindSpeedMPH,WindSpeedGustMPH,Humidity,HourlyPrecipIn,Conditions,Clouds,dailyrainin,SolarRadiationWatts/m^2,SoftwareType,DateUTC
2014-01-15 00:02:00,29.0,29.0,-100.00,SE,127,1.0,3.0,100,0.00,,,0.20,0.000000,,2014-01-15 05:02:00,
2014-01-15 00:12:00,29.0,29.0,-100.00,SE,127,1.0,3.0,100,0.00,,,0.20,0.000000,,2014-01-15 05:12:00,
2014-01-15 00:43:00,29.0,29.0,-100.00,East,90,1.0,3.0,100,0.00,,,0.20,0.000000,,2014-01-15 05:43:00,
2014-01-15 00:52:00,29.0,29.0,-100.00,East,90,1.0,3.0,100,0.00,,,0.20,0.000000,,2014-01-15 05:52:00,
2014-01-15 01:02:00,29.0,29.0,-100.00,East,90,1.0,3.0,100,0.00,,,0.20,0.000000,,2014-01-15 06:02:00,
2014-01-15 01:12:00,29.0,29.0,-100.00,East,90,1.0,3.0,100,0.00,,,0.20,0.000000,,2014-01-15 06:12:00,
2014-01-15 01:42:00,28.0,28.0,-100.00,ENE,59,1.0,2.0,100,0.00,,,0.20,0.000000,,2014-01-15 06:42:00,
2014-01-15 01:52:00,28.0,28.0,-100.00,ENE,59,1.0,2.0,100,0.00,,,0.20,0.000000,,2014-01-15 06:52:00,
2014-01-15 02:02:00,28.0,28.0,-100.00,ENE,59,1.0,2.0,100,0.00,,,0.20,0.000000,,2014-01-15 07:02:00,
2014-01-15 02:11:00,28.0,28.0,-100.00,ENE,59,1.0,2.0,100,0.00,,,0.20,0.000000,,2014-01-15 07:11:00,
2014-01-15 02:42:00,28.0,28.0,-100.00,East,94,2.0,5.0,100,0.00,,,0.19,0.000000,,2014-01-15 07:42:00,
2014-01-15 02:52:00,28.0,28.0,-100.00,East,94,2.0,5.0,100,0.00,,,0.19,0.000000,,2014-01-15 07:52:00,
2014-01-15 03:02:00,28.0,28.0,-100.00,East,94,2.0,5.0,100,0.00,,,0.19,0.000000,,2014-01-15 08:02:00,
2014-01-15 03:11:00,28.0,28.0,-100.00,East,94,2.0,5.0,100,0.00,,,0.19,0.000000,,2014-01-15 08:11:00,
2014-01-15 04:11:00,28.0,28.0,-100.00,ENE,73,1.0,5.0,100,-99.99,,,0.19,0.000000,,2014-01-15 09:11:00,
2014-01-15 04:43:00,28.0,28.0,-100.00,ESE,111,1.0,3.0,100,-99.99,,,0.19,0.000000,,2014-01-15 09:43:00,
2014-01-15 04:54:00,28.0,28.0,-100.00,ESE,111,1.0,3.0,100,-99.99,,,0.19,0.000000,,2014-01-15 09:54:00,
2014-01-15 05:03:00,28.0,28.0,-100.00,ESE,111,1.0,3.0,100,-99.99,,,0.19,0.000000,,2014-01-15 10:03:00,
2014-01-15 05:42:00,29.0,29.0,-100.00,WSW,253,1.0,3.0,100,0.00,,,0.18,0.000000,,2014-01-15 10:42:00,
2014-01-15 05:52:00,29.0,29.0,-100.00,WSW,253,1.0,3.0,100,0.00,,,0.18,0.000000,,2014-01-15 10:52:00,
2014-01-15 06:02:00,29.0,29.0,-100.00,WSW,253,1.0,3.0,100,0.00,,,0.18,0.000000,,2014-01-15 11:02:00,
2014-01-15 06:12:00,29.0,29.0,-100.00,WSW,253,1.0,3.0,100,0.00,,,0.18,0.000000,,2014-01-15 11:12:00,
2014-01-15 06:42:00,33.0,33.0,-100.00,SW,229,6.0,12.0,100,-99.99,,,0.17,0.000000,,2014-01-15 11:42:00,
2014-01-15 06:53:00,33.0,33.0,-100.00,SW,229,6.0,12.0,100,-99.99,,,0.17,0.000000,,2014-01-15 11:53:00,
2014-01-15 07:02:00,33.0,33.0,-100.00,SW,229,6.0,12.0,100,-99.99,,,0.17,0.000000,,2014-01-15 12:02:00,
2014-01-15 07:12:00,33.0,33.0,-100.00,SW,229,6.0,12.0,100,-99.99,,,0.17,0.000000,,2014-01-15 12:12:00,
2014-01-15 07:42:00,33.0,31.0,-100.00,SE,142,2.0,8.0,93,0.00,,,0.13,0.000000,,2014-01-15 12:42:00,
2014-01-15 07:52:00,33.0,31.0,-100.00,SE,142,2.0,8.0,93,0.00,,,0.13,0.000000,,2014-01-15 12:52:00,
2014-01-15 08:02:00,33.0,31.0,-100.00,SE,142,2.0,8.0,93,0.00,,,0.13,0.000000,,2014-01-15 13:02:00,
2014-01-15 08:11:00,33.0,31.0,-100.00,SE,142,2.0,8.0,93,0.00,,,0.13,0.000000,,2014-01-15 13:11:00,
2014-01-15 08:42:00,32.0,32.0,-100.00,North,-999,0.0,5.0,98,0.00,,,0.05,1.000000,,2014-01-15 13:42:00,
2014-01-15 08:52:00,32.0,32.0,-100.00,North,-999,0.0,5.0,98,0.00,,,0.05,1.000000,,2014-01-15 13:52:00,
2014-01-15 09:02:00,32.0,32.0,-100.00,North,-999,0.0,5.0,98,0.00,,,0.05,1.000000,,2014-01-15 14:02:00,
2014-01-15 09:11:00,32.0,32.0,-100.00,North,-999,0.0,5.0,98,0.00,,,0.05,1.000000,,2014-01-15 14:11:00,
2014-01-15 09:42:00,33.0,33.0,-100.00,North,-999,0.0,2.0,100,0.00,,,0.01,11.000000,,2014-01-15 14:42:00,
2014-01-15 09:52:00,33.0,33.0,-100.00,North,-999,0.0,2.0,100,0.00,,,0.01,11.000000,,2014-01-15 14:52:00,
2014-01-15 10:02:00,33.0,33.0,-100.00,North,-999,0.0,2.0,100,0.00,,,0.01,11.000000,,2014-01-15 15:02:00,
2014-01-15 10:11:00,33.0,33.0,-100.00,North,-999,0.0,2.0,100,0.00,,,0.01,11.000000,,2014-01-15 15:11:00,
2014-01-15 10:44:00,34.0,33.0,-100.00,North,-999,0.0,3.0,96,0.00,,,0.00,39.000000,,2014-01-15 15:44:00,
2014-01-15 10:54:00,34.0,33.0,-100.00,North,-999,0.0,3.0,96,0.00,,,0.00,39.000000,,2014-01-15 15:54:00,
2014-01-15 11:03:00,34.0,33.0,-100.00,North,-999,0.0,3.0,96,0.00,,,0.00,39.000000,,2014-01-15 16:03:00,
2014-01-15 11:12:00,34.0,33.0,-100.00,North,-999,0.0,3.0,96,0.00,,,0.00,39.000000,,2014-01-15 16:12:00,
2014-01-15 11:43:00,36.0,33.0,-100.00,NE,40,1.0,2.0,88,0.05,,,0.05,115.000000,,2014-01-15 16:43:00,
2014-01-15 11:53:00,36.0,33.0,-100.00,NE,40,1.0,2.0,88,0.05,,,0.05,115.000000,,2014-01-15 16:53:00,
2014-01-15 12:02:00,36.0,33.0,-100.00,NE,40,1.0,2.0,88,0.05,,,0.05,115.000000,,2014-01-15 17:02:00,
2014-01-15 12:12:00,36.0,33.0,-100.00,NE,40,1.0,2.0,88,0.05,,,0.05,115.000000,,2014-01-15 17:12:00,
2014-01-15 12:42:00,35.0,30.0,-100.00,WSW,246,2.0,4.0,83,0.02,,,0.07,126.000000,,2014-01-15 17:42:00,
2014-01-15 12:52:00,35.0,30.0,-100.00,WSW,246,2.0,4.0,83,0.02,,,0.07,126.000000,,2014-01-15 17:52:00,
2014-01-15 13:02:00,35.0,30.0,-100.00,WSW,246,2.0,4.0,83,0.02,,,0.07,126.000000,,2014-01-15 18:02:00,
2014-01-15 13:12:00,35.0,30.0,-100.00,WSW,246,2.0,4.0,83,0.02,,,0.07,126.000000,,2014-01-15 18:12:00,
2014-01-15 13:43:00,37.0,30.0,-100.00,WSW,238,2.0,3.0,76,0.00,,,0.07,171.000000,,2014-01-15 18:43:00,
2014-01-15 13:53:00,37.0,30.0,-100.00,WSW,238,2.0,3.0,76,0.00,,,0.07,171.000000,,2014-01-15 18:53:00,
2014-01-15 14:02:00,37.0,30.0,-100.00,WSW,238,2.0,3.0,76,0.00,,,0.07,171.000000,,2014-01-15 19:02:00,
2014-01-15 14:11:00,37.0,30.0,-100.00,WSW,238,2.0,3.0,76,0.00,,,0.07,171.000000,,2014-01-15 19:11:00,
2014-01-15 14:42:00,37.0,26.0,-100.00,South,191,3.0,7.0,64,0.00,,,0.07,164.000000,,2014-01-15 19:42:00,
2014-01-15 14:52:00,37.0,26.0,-100.00,South,191,3.0,7.0,64,0.00,,,0.07,164.000000,,2014-01-15 19:52:00,
2014-01-15 15:02:00,37.0,26.0,-100.00,South,191,3.0,7.0,64,0.00,,,0.07,164.000000,,2014-01-15 20:02:00,
2014-01-15 15:11:00,37.0,26.0,-100.00,South,191,3.0,7.0,64,0.00,,,0.07,164.000000,,2014-01-15 20:11:00,
2014-01-15 15:42:00,37.0,24.0,-100.00,SSW,212,4.0,8.0,60,0.00,,,0.07,148.000000,,2014-01-15 20:42:00,
2014-01-15 15:52:00,37.0,24.0,-100.00,SSW,212,4.0,8.0,60,0.00,,,0.07,148.000000,,2014-01-15 20:52:00,
2014-01-15 16:02:00,37.0,24.0,-100.00,SSW,212,4.0,8.0,60,0.00,,,0.07,148.000000,,2014-01-15 21:02:00,
2014-01-15 16:12:00,37.0,24.0,-100.00,SSW,212,4.0,8.0,60,0.00,,,0.07,148.000000,,2014-01-15 21:12:00,
2014-01-15 16:43:00,37.0,22.0,-100.00,WNW,284,4.0,9.0,55,0.00,,,0.07,92.000000,,2014-01-15 21:43:00,
2014-01-15 16:54:00,37.0,22.0,-100.00,WNW,284,4.0,9.0,55,0.00,,,0.07,92.000000,,2014-01-15 21:54:00,
2014-01-15 17:03:00,37.0,22.0,-100.00,WNW,284,4.0,9.0,55,0.00,,,0.07,92.000000,,2014-01-15 22:03:00,
2014-01-15 17:13:00,37.0,22.0,-100.00,WNW,284,4.0,9.0,55,0.00,,,0.07,92.000000,,2014-01-15 22:13:00,
2014-01-15 17:42:00,35.0,25.0,-100.00,West,261,4.0,11.0,66,0.00,,,0.07,26.000000,,2014-01-15 22:42:00,
2014-01-15 17:53:00,35.0,25.0,-100.00,West,261,4.0,11.0,66,0.00,,,0.07,26.000000,,2014-01-15 22:53:00,
2014-01-15 18:02:00,35.0,25.0,-100.00,West,261,4.0,11.0,66,0.00,,,0.07,26.000000,,2014-01-15 23:02:00,
2014-01-15 18:12:00,35.0,25.0,-100.00,West,261,4.0,11.0,66,0.00,,,0.07,26.000000,,2014-01-15 23:12:00,
2014-01-15 18:42:00,33.0,22.0,-100.00,SW,218,5.0,14.0,63,0.00,,,0.07,2.000000,,2014-01-15 23:42:00,
2014-01-15 18:53:00,33.0,22.0,-100.00,SW,218,5.0,14.0,63,0.00,,,0.07,2.000000,,2014-01-15 23:53:00,
2014-01-15 19:02:00,33.0,22.0,-100.00,SW,218,5.0,14.0,63,0.00,,,0.07,2.000000,,2014-01-16 00:02:00,
2014-01-15 19:11:00,33.0,22.0,-100.00,SW,218,5.0,14.0,63,0.00,,,0.07,2.000000,,2014-01-16 00:11:00,
2014-01-15 19:42:00,32.0,20.0,-100.00,SW,230,5.0,12.0,62,0.00,,,0.07,0.000000,,2014-01-16 00:42:00,
2014-01-15 19:52:00,32.0,20.0,-100.00,SW,230,5.0,12.0,62,0.00,,,0.07,0.000000,,2014-01-16 00:52:00,
2014-01-15 20:02:00,32.0,20.0,-100.00,SW,230,5.0,12.0,62,0.00,,,0.07,0.000000,,2014-01-16 01:02:00,
2014-01-15 20:11:00,32.0,20.0,-100.00,SW,230,5.0,12.0,62,0.00,,,0.07,0.000000,,2014-01-16 01:11:00,
2014-01-15 20:42:00,31.0,17.0,-100.00,West,262,6.0,12.0,55,0.00,,,0.07,0.000000,,2014-01-16 01:42:00,
2014-01-15 20:53:00,31.0,17.0,-100.00,West,262,6.0,12.0,55,0.00,,,0.07,0.000000,,2014-01-16 01:53:00,
2014-01-15 21:02:00,31.0,17.0,-100.00,West,262,6.0,12.0,55,0.00,,,0.07,0.000000,,2014-01-16 02:02:00,
2014-01-15 21:11:00,31.0,17.0,-100.00,West,262,6.0,12.0,55,0.00,,,0.07,0.000000,,2014-01-16 02:11:00,
2014-01-15 21:52:00,29.0,15.0,-100.00,WSW,246,7.0,12.0,56,0.00,,,0.07,0.000000,,2014-01-16 02:52:00,
2014-01-15 22:02:00,29.0,15.0,-100.00,WSW,246,7.0,12.0,56,0.00,,,0.07,0.000000,,2014-01-16 03:02:00,
2014-01-15 22:11:00,29.0,15.0,-100.00,WSW,246,7.0,12.0,56,0.00,,,0.07,0.000000,,2014-01-16 03:11:00,
2014-01-15 22:43:00,28.0,15.0,-100.00,WSW,248,4.0,11.0,58,0.00,,,0.07,0.000000,,2014-01-16 03:43:00,
2014-01-15 22:53:00,28.0,15.0,-100.00,WSW,248,4.0,11.0,58,0.00,,,0.07,0.000000,,2014-01-16 03:53:00,
2014-01-15 23:03:00,28.0,15.0,-100.00,WSW,248,4.0,11.0,58,0.00,,,0.07,0.000000,,2014-01-16 04:03:00,
2014-01-15 23:13:00,28.0,15.0,-100.00,WSW,248,4.0,11.0,58,0.00,,,0.07,0.000000,,2014-01-16 04:13:00,
2014-01-15 23:43:00,26.0,13.0,-100.00,WSW,245,5.0,9.0,58,0.00,,,0.07,0.000000,,2014-01-16 04:43:00,
2014-01-15 23:53:00,26.0,13.0,-100.00,WSW,245,5.0,9.0,58,0.00,,,0.07,0.000000,,2014-01-16 04:53:00,